Kosmos-2539

operational
NORAD ID: 44457 Int'l Des: 2019-048 Owner: VVKOV/VOENT Country: RU
HEOCIRCULARGSOGEO

About Kosmos-2539

Description loading...

Live Position

Loading 3D Globe...

Upcoming Passes

Altitude History

Altitude vs Time

uPlot chart will show altitude changes over time

Two-Line Element Set

1 44457U 19048A 26048.34211439 .00000086 00000-0 00000+0 0 9996
2 44457 0.0147 114.0895 0000791 170.1477 358.2101 1.00274323 24020
Epoch: Feb 17, 2026 • Age: 21 hours

Current Status

Altitude 35782.8 km
Velocity 3.07 km/s
Sub-Earth Point 0.03°N, 11.99°E
Launch Date Aug 5, 2019
Age 6.5 years
Type other

Technical Details

Classification Payload
Mass 3162.00 kg
Dry Mass 2000.00 kg
Total Mass 3162.00 kg
Length 6.00 m
Diameter 2.00 m
Span 27.00 m
Shape Cyl + 2 Pan
Manufacturer RESH
Bus Type Ekspress-2000
Phase Status In Orbit
Owner/State VVKOV/VOENT/RU

Large Constellations

Loading constellations...